Orangeburg, SC

7:26 PM EDT on June 24, 2017 (GMT -0400)
Orangeburg Municipal

Weather History for KOGB - July, 2013

Change the Weather History Date:

Tuesday, July 2, 2013

  Actual Average Record
Temperature  
Mean Temperature 77 °F 81 °F  
Max Temperature 80 °F 92 °F 100 °F (1954)
Min Temperature 73 °F 70 °F 58 °F (1988)
Degree Days  
Heating Degree Days 0 0  
Month to date heating degree days 0 0  
Since 1 June heating degree days 0 1  
Since 1 July heating degree days 0 0  
Cooling Degree Days 12 16  
Month to date cooling degree days 24 32  
Year to date cooling degree days 710 733  
Since 1 June cooling degree days 448 430  
Growing Degree Days 26 (Base 50)    
Moisture  
Dew Point 72 °F    
Average Humidity 91    
Maximum Humidity 94    
Minimum Humidity 82    
Precipitation  
Precipitation 0.95 in 0.19 in 2.21 in (2003)
Month to date precipitation 2.65 0.38  
Year to date precipitation 26.92 23.12  
Sea Level Pressure  
Sea Level Pressure 30.08 in    
Wind  
Wind Speed 5 mph (SSE)    
Max Wind Speed 15 mph    
Max Gust Speed 21 mph    
Visibility 7 miles    
Events Rain    
T = Trace of Precipitation, MM = Missing Value Source: NWS Daily Summary

Daily Weather History Graph

Daily Weather History Graph

Search for Another Location

Airport or City:

Trip Planner

Search our weather history database for the weather conditions in past years. The results will help you decide how hot, cold, wet, or windy it might be!

Date:

Astronomy

Jul. 02, 2013 Rise Set
Actual Time 6:17 AM EDT 8:37 PM EDT
Civil Twilight 5:49 AM EDT 9:05 PM EDT
Nautical Twilight 5:13 AM EDT 9:41 PM EDT
Astronomical Twilight 4:35 AM EDT 10:19 PM EDT
Moon 2:11 AM EDT (7/2) 3:56 PM EDT (7/2)
Length of Visible Light 15h 16m
Length of Day
14h 19m
Waning Crescent, 26% of the Moon is Illuminated
Jul 2
Waning Crescent
Jul 8
New
Jul 15
First Quarter
Jul 22
Full
Jul 29
Last Quarter

Hourly Weather History & Observations

Time (EDT) Temp. Heat Index Dew Point Humidity Pressure Visibility Wind Dir Wind Speed Gust Speed Precip Events Conditions
12:22 AM 73.4 °F - 71.6 °F 94% 30.01 in 10.0 mi South 8.1 mph - N/A   Mostly Cloudy
12:53 AM 73.9 °F - 72.0 °F 93% 30.01 in 10.0 mi South 6.9 mph - N/A   Mostly Cloudy
1:05 AM 73.4 °F - 71.6 °F 94% 30.02 in 10.0 mi South 5.8 mph - N/A   Mostly Cloudy
1:53 AM 73.9 °F - 72.0 °F 93% 30.01 in 10.0 mi South 4.6 mph - N/A   Mostly Cloudy
2:53 AM 73.9 °F - 71.1 °F 91% 30.01 in 10.0 mi South 3.5 mph - N/A   Clear
3:53 AM 73.0 °F - 71.1 °F 93% 30.01 in 10.0 mi Calm Calm - 0.00 in   Mostly Cloudy
4:16 AM 73.4 °F - 71.6 °F 94% 30.02 in 10.0 mi Calm Calm - N/A   Mostly Cloudy
4:36 AM 73.4 °F - 71.6 °F 94% 30.03 in 10.0 mi Calm Calm - 0.00 in   Overcast
4:50 AM 73.4 °F - 71.6 °F 94% 30.03 in 9.0 mi Calm Calm - 0.00 in Rain Light Rain
4:53 AM 73.0 °F - 71.1 °F 93% 30.02 in 9.0 mi Calm Calm - 0.00 in Rain Light Rain
5:18 AM 73.4 °F - 71.6 °F 94% 30.03 in 8.0 mi SSE 5.8 mph - 0.01 in Rain Light Rain
5:53 AM 73.0 °F - 71.1 °F 93% 30.04 in 8.0 mi South 3.5 mph - 0.03 in Rain Light Rain
6:00 AM 73.4 °F - 71.6 °F 94% 30.05 in 8.0 mi South 3.5 mph - 0.00 in Rain Light Rain
6:53 AM 73.0 °F - 71.1 °F 93% 30.06 in 9.0 mi South 4.6 mph - 0.01 in   Overcast
7:53 AM 73.0 °F - 71.1 °F 93% 30.07 in 7.0 mi South 6.9 mph - 0.01 in Rain Light Rain
8:53 AM 73.0 °F - 71.1 °F 93% 30.09 in 10.0 mi South 4.6 mph - 0.01 in Rain Light Rain
10:21 AM 75.2 °F - 71.6 °F 89% 30.10 in 10.0 mi South 5.8 mph - 0.00 in Rain Light Rain
10:53 AM 77.0 °F - 72.0 °F 84% 30.09 in 10.0 mi SW 5.8 mph - 0.00 in Rain Light Rain
11:27 AM 78.8 °F - 71.6 °F 78% 30.10 in 10.0 mi SSW 8.1 mph - 0.00 in   Mostly Cloudy
11:53 AM 78.1 °F - 72.0 °F 81% 30.10 in 10.0 mi Variable 6.9 mph - 0.00 in   Overcast
12:28 PM 80.6 °F 84.6 °F 71.6 °F 74% 30.10 in 10.0 mi SSE 5.8 mph - N/A   Mostly Cloudy
12:41 PM 78.8 °F - 71.6 °F 78% 30.09 in 10.0 mi SSW 4.6 mph - N/A   Overcast
12:53 PM 78.1 °F - 73.0 °F 84% 30.09 in 4.0 mi South 5.8 mph - 0.05 in Rain Rain
1:15 PM 78.8 °F - 73.4 °F 83% 30.09 in 9.0 mi SE 4.6 mph - 0.01 in Rain Light Rain
1:31 PM 77.0 °F - 73.4 °F 89% 30.09 in 7.0 mi SE 9.2 mph - 0.02 in Rain Light Rain
1:43 PM 75.2 °F - 71.6 °F 89% 30.09 in 1.8 mi SSE 12.7 mph 20.7 mph 0.10 in Rain Heavy Rain
1:48 PM 75.2 °F - 71.6 °F 89% 30.10 in 2.0 mi SSE 10.4 mph 20.7 mph 0.11 in Rain Light Rain
1:53 PM 75.0 °F - 72.0 °F 90% 30.10 in 3.0 mi South 9.2 mph - 0.15 in Rain Rain
1:55 PM 75.2 °F - 71.6 °F 89% 30.10 in 1.8 mi South 9.2 mph - 0.03 in Rain Heavy Rain
2:06 PM 75.2 °F - 71.6 °F 89% 30.10 in 2.0 mi SSE 10.4 mph 16.1 mph 0.09 in Rain Heavy Rain
2:09 PM 75.2 °F - 73.4 °F 94% 30.10 in 1.5 mi SSE 10.4 mph 16.1 mph 0.12 in Rain Heavy Rain
2:17 PM 75.2 °F - 73.4 °F 94% 30.10 in 2.0 mi South 10.4 mph - 0.16 in Rain Heavy Rain
2:21 PM 75.2 °F - 73.4 °F 94% 30.10 in 3.0 mi South 4.6 mph - 0.17 in Rain Rain
2:53 PM 75.0 °F - 72.0 °F 90% 30.10 in 7.0 mi SSE 11.5 mph 17.3 mph 0.22 in Rain Light Rain
3:53 PM 73.9 °F - 71.1 °F 91% 30.09 in 10.0 mi SE 3.5 mph - 0.02 in Rain Light Rain
4:30 PM 73.4 °F - 71.6 °F 94% 30.10 in 2.0 mi ESE 4.6 mph - 0.17 in Rain Heavy Rain
4:41 PM 73.4 °F - 71.6 °F 94% 30.10 in 6.0 mi SE 5.8 mph - 0.19 in Rain Light Rain
4:53 PM 73.9 °F - 71.1 °F 91% 30.09 in 6.0 mi SE 3.5 mph - 0.21 in Rain Rain
5:53 PM 75.0 °F - 73.0 °F 94% 30.08 in 10.0 mi East 5.8 mph - 0.01 in   Overcast
6:35 PM 75.2 °F - 73.4 °F 94% 30.09 in 2.5 mi Variable 3.5 mph - 0.06 in Rain Rain
6:37 PM 75.2 °F - 73.4 °F 94% 30.09 in 1.5 mi Calm Calm - 0.09 in Rain Heavy Rain
6:48 PM 75.2 °F - 73.4 °F 94% 30.09 in 1.8 mi Variable 3.5 mph - 0.17 in Rain Heavy Rain
6:53 PM 75.0 °F - 73.0 °F 94% 30.08 in 3.0 mi Variable 5.8 mph - 0.18 in Rain Rain
7:40 PM 75.2 °F - 73.4 °F 94% 30.10 in 10.0 mi SE 4.6 mph - 0.04 in   Overcast
7:48 PM 75.2 °F - 73.4 °F 94% 30.11 in 10.0 mi SE 4.6 mph - 0.04 in   Overcast
7:53 PM 75.0 °F - 73.0 °F 94% 30.10 in 10.0 mi SE 4.6 mph - 0.04 in   Mostly Cloudy
8:18 PM 75.2 °F - 73.4 °F 94% 30.12 in 10.0 mi Calm Calm - N/A   Mostly Cloudy
8:46 PM 75.2 °F - 73.4 °F 94% 30.12 in 10.0 mi SE 4.6 mph - N/A   Overcast
8:53 PM 75.9 °F - 73.9 °F 94% 30.12 in 10.0 mi SE 4.6 mph - N/A   Overcast
9:53 PM 75.9 °F - 73.9 °F 94% 30.13 in 8.0 mi SE 5.8 mph - N/A   Overcast
10:07 PM 75.2 °F - 73.4 °F 94% 30.14 in 8.0 mi SE 4.6 mph - N/A   Overcast
10:25 PM 75.2 °F - 73.4 °F 94% 30.14 in 10.0 mi SSE 3.5 mph - N/A   Scattered Clouds
10:53 PM 75.9 °F - 73.9 °F 94% 30.14 in 9.0 mi Calm Calm - N/A   Mostly Cloudy
11:53 PM 75.9 °F - 73.9 °F 94% 30.14 in 9.0 mi SE 4.6 mph - N/A   Overcast